QPF
0.02 0.01 0.00 0.01 0.02 0.03 0.03 0.03 0.02 0.02 0.02 0.03 0.03 0.03 0.05 0.05 0.04 0.04 0.03 0.03 0.04 0.05 0.05 0.05 0.06 0.05 0.04 0.03 0.03 0.04 0.04 0.04 0.03 0.04 0.05 0.05 0.04 0.04 0.04 0.04 0.02 0.01 0.01
0.02 0.01 0.01 0.02 0.03 0.03 0.03 0.03 0.04 0.05 0.04 0.03 0.03 0.03 0.03 0.04 0.03 0.02 0.02 0.02 0.04 0.06 0.05 0.06 0.05 0.04 0.04 0.03 0.03 0.03 0.03 0.03 0.03 0.03 0.04 0.04 0.04 0.05 0.05 0.05 0.04 0.03 0.03
0.03 0.01 0.02 0.02 0.02 0.02 0.03 0.03 0.04 0.06 0.06 0.04 0.05 0.03 0.03 0.03 0.03 0.02 0.01 0.01 0.02 0.05 0.06 0.06 0.06 0.06 0.07 0.07 0.06 0.05 0.04 0.05 0.06 0.04 0.04 0.03 0.02 0.03 0.03 0.04 0.03 0.03 0.03
0.04 0.02 0.03 0.03 0.02 0.02 0.03 0.03 0.03 0.04 0.05 0.05 0.05 0.04 0.03 0.03 0.03 0.03 0.02 0.02 0.03 0.04 0.05 0.07 0.08 0.08 0.08 0.08 0.09 0.09 0.08 0.09 0.10 0.07 0.04 0.02 0.02 0.02 0.02 0.03 0.03 0.03 0.03
0.02 0.03 0.04 0.02 0.01 0.02 0.03 0.03 0.03 0.03 0.04 0.04 0.04 0.04 0.04 0.04 0.06 0.06 0.04 0.03 0.03 0.03 0.04 0.05 0.08 0.07 0.07 0.08 0.11 0.11 0.11 0.11 0.10 0.08 0.05 0.03 0.03 0.02 0.02 0.03 0.03 0.04 0.03
0.02 0.02 0.03 0.02 0.02 0.02 0.03 0.04 0.04 0.04 0.04 0.03 0.03 0.04 0.04 0.05 0.07 0.08 0.08 0.06 0.04 0.05 0.04 0.04 0.04 0.05 0.05 0.08 0.10 0.09 0.08 0.09 0.09 0.08 0.07 0.07 0.06 0.06 0.05 0.05 0.05 0.05 0.04
0.03 0.03 0.03 0.03 0.03 0.03 0.02 0.03 0.04 0.04 0.03 0.02 0.02 0.03 0.04 0.05 0.06 0.06 0.05 0.04 0.04 0.08 0.09 0.07 0.05 0.04 0.05 0.06 0.07 0.07 0.08 0.10 0.10 0.10 0.10 0.09 0.09 0.09 0.08 0.08 0.07 0.06 0.05
0.03 0.02 0.04 0.03 0.03 0.02 0.03 0.05 0.05 0.04 0.02 0.02 0.02 0.03 0.03 0.03 0.02 0.03 0.04 0.04 0.06 0.08 0.09 0.08 0.07 0.05 0.04 0.04 0.04 0.05 0.08 0.10 0.12 0.12 0.12 0.11 0.11 0.11 0.11 0.10 0.10 0.08 0.07
0.03 0.02 0.03 0.03 0.03 0.03 0.03 0.05 0.05 0.04 0.03 0.03 0.02 0.02 0.02 0.02 0.01 0.02 0.03 0.05 0.06 0.06 0.08 0.08 0.08 0.06 0.05 0.04 0.05 0.05 0.05 0.06 0.09 0.10 0.12 0.12 0.13 0.12 0.10 0.09 0.08 0.06 0.06
0.03 0.03 0.03 0.06 0.07 0.06 0.05 0.05 0.05 0.04 0.03 0.03 0.03 0.03 0.03 0.02 0.02 0.02 0.02 0.03 0.04 0.04 0.06 0.06 0.07 0.07 0.06 0.06 0.06 0.06 0.05 0.05 0.08 0.08 0.09 0.11 0.13 0.12 0.10 0.10 0.09 0.09 0.08
0.03 0.03 0.03 0.04 0.06 0.07 0.06 0.05 0.04 0.03 0.03 0.03 0.03 0.05 0.04 0.02 0.01 0.01 0.01 0.02 0.02 0.03 0.03 0.04 0.03 0.04 0.05 0.05 0.04 0.05 0.05 0.05 0.06 0.06 0.06 0.07 0.08 0.09 0.09 0.09 0.10 0.09 0.09
0.03 0.04 0.03 0.03 0.04 0.04 0.03 0.03 0.05 0.04 0.03 0.03 0.03 0.04 0.03 0.02 0.02 0.02 0.02 0.01 0.01 0.02 0.02 0.02 0.02 0.02 0.03 0.03 0.03 0.04 0.04 0.06 0.06 0.06 0.07 0.06 0.06 0.07 0.09 0.10 0.10 0.12 0.13
0.03 0.02 0.02 0.03 0.02 0.02 0.02 0.02 0.04 0.03 0.02 0.02 0.02 0.02 0.02 0.02 0.01 0.01 0.02 0.02 0.01 0.01 0.01 0.01 0.01 0.01 0.02 0.02 0.03 0.03 0.03 0.07 0.04 0.04 0.05 0.05 0.07 0.07 0.07 0.07 0.09 0.10 0.12
0.03 0.02 0.02 0.02 0.02 0.02 0.03 0.05 0.03 0.02 0.01 0.01 0.01 0.01 0.01 0.03 0.02 0.02 0.02 0.02 0.01 0.00 0.00 0.00 0.01 0.01 0.02 0.03 0.03 0.03 0.02 0.04 0.03 0.03 0.04 0.04 0.04 0.04 0.04 0.06 0.10 0.11 0.11
0.03 0.02 0.02 0.02 0.02 0.02 0.04 0.05 0.04 0.02 0.01 0.01 0.01 0.01 0.01 0.02 0.03 0.04 0.04 0.03 0.02 0.01 0.01 0.00 0.00 0.01 0.02 0.01 0.01 0.01 0.01 0.01 0.01 0.02 0.03 0.03 0.03 0.02 0.02 0.03 0.05 0.07 0.09
0.02 0.01 0.02 0.02 0.01 0.02 0.03 0.04 0.03 0.03 0.02 0.01 0.01 0.02 0.02 0.02 0.03 0.04 0.04 0.03 0.03 0.02 0.02 0.02 0.02 0.01 0.01 0.01 0.01 0.01 0.00 0.00 0.00 0.00 0.01 0.01 0.02 0.02 0.02 0.02 0.03 0.04 0.04
0.02 0.01 0.01 0.02 0.01 0.01 0.02 0.03 0.03 0.03 0.02 0.02 0.02 0.04 0.03 0.03 0.03 0.03 0.04 0.04 0.05 0.06 0.07 0.06 0.03 0.01 0.01 0.01 0.01 0.01 0.01 0.00 0.00 0.00 0.00 0.00 0.01 0.01 0.02 0.02 0.03 0.03 0.04
0.01 0.01 0.00 0.01 0.01 0.02 0.02 0.03 0.05 0.05 0.03 0.03 0.04 0.03 0.02 0.02 0.02 0.02 0.03 0.04 0.05 0.06 0.05 0.02 0.01 0.01 0.01 0.01 0.01 0.01 0.01 0.01 0.01 0.01 0.00 0.00 0.00 0.01 0.01 0.02 0.02 0.03 0.04
0.01 0.01 0.00 0.00 0.01 0.01 0.02 0.03 0.03 0.03 0.03 0.04 0.03 0.02 0.02 0.01 0.01 0.01 0.01 0.02 0.02 0.02 0.02 0.02 0.01 0.01 0.01 0.01 0.01 0.01 0.01 0.01 0.01 0.01 0.00 0.01 0.01 0.01 0.01 0.01 0.01 0.03 0.03
0.01 0.01 0.00 0.00 0.00 0.01 0.01 0.02 0.03 0.03 0.04 0.03 0.03 0.02 0.02 0.02 0.01 0.01 0.02 0.03 0.02 0.02 0.02 0.02 0.01 0.01 0.01 0.01 0.01 0.01 0.01 0.01 0.01 0.01 0.01 0.01 0.01 0.01 0.02 0.03 0.04 0.05 0.06
0.02 0.02 0.01 0.00 0.00 0.01 0.01 0.01 0.02 0.02 0.02 0.02 0.02 0.02 0.01 0.01 0.01 0.01 0.02 0.03 0.03 0.02 0.02 0.02 0.01 0.01 0.01 0.01 0.01 0.01 0.01 0.01 0.00 0.00 0.00 0.01 0.01 0.02 0.03 0.04 0.04 0.05 0.06
0.03 0.02 0.02 0.01 0.00 0.01 0.01 0.01 0.01 0.02 0.02 0.02 0.01 0.01 0.01 0.01 0.01 0.02 0.03 0.03 0.01 0.01 0.01 0.01 0.01 0.01 0.01 0.01 0.01 0.01 0.01 0.01 0.01 0.01 0.02 0.02 0.02 0.03 0.04 0.04 0.03 0.03 0.04
0.05 0.04 0.02 0.01 0.01 0.01 0.02 0.03 0.03 0.02 0.02 0.01 0.01 0.01 0.01 0.01 0.02 0.02 0.02 0.02 0.01 0.01 0.01 0.01 0.01 0.01 0.01 0.01 0.01 0.01 0.01 0.01 0.01 0.02 0.02 0.03 0.03 0.04 0.05 0.05 0.05 0.04 0.03
0.09 0.05 0.03 0.02 0.01 0.02 0.03 0.03 0.02 0.02 0.01 0.01 0.01 0.01 0.01 0.01 0.02 0.02 0.02 0.02 0.02 0.02 0.02 0.02 0.01 0.01 0.01 0.02 0.02 0.01 0.01 0.01 0.02 0.02 0.02 0.03 0.03 0.03 0.04 0.04 0.04 0.03 0.02
0.10 0.06 0.03 0.03 0.02 0.03 0.03 0.03 0.02 0.02 0.02 0.01 0.01 0.01 0.01 0.01 0.01 0.01 0.02 0.01 0.01 0.01 0.02 0.02 0.01 0.01 0.01 0.02 0.02 0.02 0.01 0.01 0.01 0.02 0.03 0.02 0.01 0.01 0.01 0.01 0.01 0.01 0.01
0.09 0.08 0.08 0.08 0.07 0.06 0.04 0.04 0.04 0.03 0.02 0.02 0.01 0.01 0.01 0.01 0.01 0.01 0.01 0.01 0.01 0.01 0.01 0.01 0.01 0.01 0.01 0.02 0.02 0.01 0.01 0.01 0.01 0.01 0.01 0.01 0.02 0.02 0.02 0.01 0.01 0.01 0.01
MSLP
1016.84 1016.95 1016.99 1016.96 1016.89 1016.80 1016.72 1016.68 1016.67 1016.71 1016.76 1016.83 1016.89 1016.94 1016.97 1017.01 1017.05 1017.12 1017.22 1017.35 1017.50 1017.65 1017.79 1017.90 1017.98 1018.02 1018.05 1018.06 1018.09 1018.14 1018.22 1018.34 1018.51 1018.69 1018.90 1019.11 1019.32 1019.51 1019.68 1019.82 1019.94 1020.04 1020.13
1016.90 1016.98 1017.00 1016.96 1016.89 1016.80 1016.73 1016.68 1016.68 1016.71 1016.76 1016.81 1016.84 1016.86 1016.85 1016.83 1016.82 1016.84 1016.90 1017.00 1017.14 1017.30 1017.47 1017.62 1017.75 1017.83 1017.88 1017.91 1017.92 1017.95 1018.00 1018.09 1018.21 1018.38 1018.57 1018.78 1018.98 1019.17 1019.34 1019.48 1019.60 1019.70 1019.80
1016.88 1016.95 1016.98 1016.97 1016.92 1016.87 1016.83 1016.80 1016.81 1016.84 1016.87 1016.90 1016.90 1016.87 1016.81 1016.73 1016.66 1016.61 1016.62 1016.68 1016.79 1016.95 1017.13 1017.31 1017.47 1017.58 1017.65 1017.68 1017.69 1017.69 1017.71 1017.75 1017.85 1017.98 1018.15 1018.34 1018.53 1018.71 1018.88 1019.03 1019.15 1019.27 1019.39
1016.81 1016.88 1016.94 1016.97 1016.98 1016.99 1016.99 1017.01 1017.03 1017.06 1017.08 1017.08 1017.04 1016.97 1016.85 1016.72 1016.59 1016.48 1016.42 1016.43 1016.50 1016.63 1016.79 1016.96 1017.12 1017.25 1017.32 1017.35 1017.35 1017.34 1017.33 1017.35 1017.41 1017.52 1017.66 1017.83 1018.01 1018.19 1018.36 1018.51 1018.66 1018.79 1018.94
1016.67 1016.75 1016.84 1016.93 1017.02 1017.09 1017.16 1017.21 1017.26 1017.30 1017.31 1017.28 1017.21 1017.10 1016.95 1016.77 1016.59 1016.43 1016.31 1016.25 1016.26 1016.33 1016.45 1016.59 1016.72 1016.83 1016.89 1016.92 1016.92 1016.90 1016.88 1016.89 1016.94 1017.03 1017.16 1017.32 1017.49 1017.67 1017.84 1018.00 1018.16 1018.32 1018.48
1016.45 1016.54 1016.67 1016.82 1016.97 1017.11 1017.23 1017.32 1017.39 1017.43 1017.43 1017.40 1017.32 1017.20 1017.03 1016.84 1016.63 1016.43 1016.27 1016.14 1016.08 1016.07 1016.11 1016.18 1016.26 1016.33 1016.37 1016.39 1016.39 1016.39 1016.39 1016.41 1016.47 1016.57 1016.70 1016.86 1017.03 1017.20 1017.37 1017.53 1017.70 1017.87 1018.05
1016.18 1016.26 1016.40 1016.59 1016.78 1016.97 1017.13 1017.25 1017.33 1017.37 1017.38 1017.35 1017.28 1017.18 1017.03 1016.86 1016.66 1016.45 1016.25 1016.07 1015.93 1015.83 1015.78 1015.76 1015.76 1015.78 1015.80 1015.82 1015.83 1015.86 1015.90 1015.96 1016.06 1016.19 1016.34 1016.50 1016.67 1016.84 1016.99 1017.14 1017.29 1017.46 1017.64
1015.86 1015.92 1016.06 1016.24 1016.45 1016.65 1016.82 1016.95 1017.04 1017.09 1017.10 1017.09 1017.06 1017.00 1016.91 1016.79 1016.63 1016.44 1016.23 1016.01 1015.81 1015.62 1015.47 1015.35 1015.28 1015.24 1015.23 1015.25 1015.30 1015.37 1015.47 1015.59 1015.75 1015.91 1016.09 1016.27 1016.43 1016.58 1016.71 1016.83 1016.95 1017.09 1017.26
1015.55 1015.56 1015.65 1015.81 1016.00 1016.19 1016.35 1016.46 1016.54 1016.59 1016.62 1016.64 1016.66 1016.67 1016.66 1016.62 1016.52 1016.38 1016.18 1015.95 1015.69 1015.43 1015.20 1015.00 1014.85 1014.77 1014.74 1014.77 1014.85 1014.98 1015.14 1015.34 1015.55 1015.77 1015.97 1016.15 1016.30 1016.42 1016.50 1016.57 1016.65 1016.75 1016.89
1015.27 1015.21 1015.25 1015.36 1015.51 1015.65 1015.77 1015.86 1015.92 1015.97 1016.02 1016.08 1016.15 1016.24 1016.31 1016.35 1016.34 1016.26 1016.10 1015.87 1015.59 1015.29 1015.00 1014.74 1014.54 1014.42 1014.38 1014.42 1014.54 1014.73 1014.95 1015.21 1015.48 1015.73 1015.95 1016.12 1016.25 1016.32 1016.35 1016.37 1016.39 1016.44 1016.55
1015.03 1014.91 1014.89 1014.94 1015.03 1015.12 1015.20 1015.26 1015.30 1015.34 1015.40 1015.49 1015.61 1015.76 1015.92 1016.05 1016.11 1016.10 1015.99 1015.79 1015.51 1015.20 1014.88 1014.59 1014.37 1014.23 1014.20 1014.26 1014.41 1014.64 1014.91 1015.21 1015.50 1015.77 1015.99 1016.14 1016.23 1016.26 1016.24 1016.19 1016.16 1016.17 1016.24
1014.83 1014.66 1014.59 1014.59 1014.63 1014.68 1014.72 1014.74 1014.76 1014.79 1014.85 1014.95 1015.11 1015.31 1015.52 1015.71 1015.85 1015.90 1015.84 1015.69 1015.45 1015.15 1014.85 1014.57 1014.35 1014.23 1014.20 1014.29 1014.46 1014.70 1014.99 1015.30 1015.60 1015.86 1016.06 1016.18 1016.23 1016.22 1016.15 1016.06 1015.99 1015.96 1016.02
1014.60 1014.42 1014.32 1014.29 1014.30 1014.32 1014.34 1014.34 1014.34 1014.35 1014.41 1014.52 1014.69 1014.90 1015.15 1015.38 1015.56 1015.66 1015.67 1015.57 1015.39 1015.15 1014.89 1014.65 1014.47 1014.38 1014.38 1014.47 1014.65 1014.90 1015.18 1015.47 1015.75 1015.97 1016.14 1016.23 1016.25 1016.20 1016.10 1015.99 1015.89 1015.85 1015.90
1014.32 1014.14 1014.04 1014.01 1014.02 1014.03 1014.04 1014.04 1014.03 1014.03 1014.07 1014.17 1014.32 1014.54 1014.78 1015.03 1015.23 1015.38 1015.44 1015.40 1015.30 1015.14 1014.96 1014.80 1014.68 1014.64 1014.67 1014.78 1014.96 1015.18 1015.43 1015.68 1015.91 1016.10 1016.23 1016.28 1016.28 1016.21 1016.11 1015.99 1015.90 1015.87 1015.92
1013.92 1013.77 1013.70 1013.69 1013.72 1013.75 1013.77 1013.77 1013.76 1013.75 1013.78 1013.85 1013.98 1014.17 1014.39 1014.63 1014.85 1015.02 1015.13 1015.17 1015.15 1015.09 1015.02 1014.95 1014.92 1014.94 1015.01 1015.14 1015.31 1015.50 1015.71 1015.91 1016.09 1016.22 1016.32 1016.35 1016.34 1016.29 1016.20 1016.11 1016.03 1016.02 1016.08
1013.40 1013.30 1013.27 1013.29 1013.35 1013.41 1013.45 1013.47 1013.46 1013.45 1013.46 1013.50 1013.60 1013.75 1013.94 1014.16 1014.38 1014.57 1014.73 1014.85 1014.92 1014.97 1015.01 1015.05 1015.11 1015.21 1015.33 1015.47 1015.63 1015.80 1015.97 1016.12 1016.24 1016.35 1016.42 1016.45 1016.45 1016.42 1016.36 1016.31 1016.27 1016.28 1016.36
1012.79 1012.72 1012.72 1012.78 1012.87 1012.95 1013.02 1013.05 1013.05 1013.04 1013.03 1013.06 1013.13 1013.24 1013.40 1013.60 1013.81 1014.03 1014.23 1014.41 1014.57 1014.73 1014.87 1015.03 1015.19 1015.36 1015.54 1015.71 1015.87 1016.02 1016.16 1016.27 1016.37 1016.45 1016.51 1016.56 1016.58 1016.59 1016.59 1016.58 1016.58 1016.61 1016.70
1012.14 1012.08 1012.10 1012.18 1012.27 1012.37 1012.45 1012.49 1012.49 1012.48 1012.48 1012.49 1012.54 1012.64 1012.78 1012.96 1013.17 1013.39 1013.63 1013.86 1014.10 1014.34 1014.59 1014.84 1015.09 1015.34 1015.57 1015.78 1015.96 1016.11 1016.23 1016.33 1016.42 1016.50 1016.57 1016.65 1016.71 1016.77 1016.82 1016.86 1016.90 1016.95 1017.03
1011.50 1011.44 1011.45 1011.51 1011.59 1011.68 1011.75 1011.78 1011.79 1011.79 1011.79 1011.80 1011.85 1011.95 1012.08 1012.25 1012.46 1012.69 1012.95 1013.22 1013.51 1013.82 1014.14 1014.46 1014.79 1015.11 1015.39 1015.64 1015.85 1016.02 1016.15 1016.26 1016.36 1016.46 1016.56 1016.67 1016.79 1016.90 1016.99 1017.08 1017.15 1017.21 1017.29
1010.93 1010.83 1010.79 1010.81 1010.85 1010.90 1010.94 1010.96 1010.97 1010.98 1010.99 1011.02 1011.09 1011.19 1011.33 1011.51 1011.72 1011.95 1012.22 1012.50 1012.82 1013.16 1013.52 1013.90 1014.28 1014.64 1014.98 1015.28 1015.53 1015.73 1015.89 1016.03 1016.15 1016.28 1016.42 1016.57 1016.73 1016.89 1017.04 1017.17 1017.27 1017.35 1017.43
1010.43 1010.26 1010.16 1010.10 1010.07 1010.07 1010.06 1010.06 1010.06 1010.07 1010.11 1010.18 1010.27 1010.41 1010.57 1010.76 1010.98 1011.21 1011.46 1011.74 1012.05 1012.39 1012.76 1013.16 1013.57 1013.97 1014.35 1014.69 1014.98 1015.23 1015.43 1015.60 1015.76 1015.93 1016.11 1016.30 1016.51 1016.71 1016.91 1017.07 1017.21 1017.32 1017.41
1009.97 1009.72 1009.53 1009.38 1009.27 1009.18 1009.12 1009.08 1009.07 1009.10 1009.17 1009.28 1009.43 1009.61 1009.81 1010.03 1010.25 1010.47 1010.71 1010.96 1011.24 1011.56 1011.92 1012.31 1012.73 1013.15 1013.55 1013.93 1014.26 1014.55 1014.79 1015.00 1015.20 1015.39 1015.60 1015.83 1016.07 1016.32 1016.55 1016.77 1016.95 1017.11 1017.24
1009.48 1009.15 1008.86 1008.61 1008.40 1008.24 1008.11 1008.04 1008.03 1008.08 1008.19 1008.36 1008.57 1008.81 1009.06 1009.31 1009.55 1009.77 1009.98 1010.20 1010.45 1010.73 1011.05 1011.42 1011.82 1012.25 1012.67 1013.07 1013.43 1013.74 1014.02 1014.25 1014.47 1014.69 1014.91 1015.16 1015.42 1015.70 1015.98 1016.24 1016.48 1016.70 1016.90
1008.93 1008.51 1008.13 1007.78 1007.48 1007.24 1007.06 1006.96 1006.94 1007.02 1007.18 1007.42 1007.71 1008.02 1008.33 1008.63 1008.89 1009.11 1009.32 1009.51 1009.72 1009.96 1010.24 1010.58 1010.96 1011.38 1011.80 1012.20 1012.57 1012.90 1013.19 1013.43 1013.65 1013.86 1014.08 1014.32 1014.59 1014.88 1015.19 1015.51 1015.82 1016.11 1016.40
1008.27 1007.78 1007.31 1006.88 1006.51 1006.20 1005.97 1005.85 1005.84 1005.96 1006.18 1006.49 1006.85 1007.25 1007.64 1007.99 1008.30 1008.55 1008.75 1008.94 1009.12 1009.33 1009.59 1009.89 1010.25 1010.65 1011.05 1011.45 1011.81 1012.13 1012.39 1012.61 1012.80 1012.98 1013.16 1013.38 1013.63 1013.93 1014.26 1014.61 1014.98 1015.36 1015.73
1007.52 1006.98 1006.45 1005.96 1005.53 1005.17 1004.91 1004.78 1004.79 1004.94 1005.23 1005.61 1006.07 1006.55 1007.02 1007.44 1007.81 1008.10 1008.33 1008.53 1008.71 1008.91 1009.15 1009.44 1009.77 1010.15 1010.53 1010.90 1011.23 1011.51 1011.72 1011.89 1012.02 1012.13 1012.26 1012.42 1012.63 1012.89 1013.22 1013.60 1014.01 1014.45 1014.91
Thickness
5742 5742 5741 5741 5741 5740 5740 5740 5740 5740 5739 5739 5739 5738 5737 5737 5736 5736 5736 5736 5735 5734 5733 5732 5731 5730 5729 5728 5726 5725 5724 5722 5721 5719 5717 5716 5715 5713 5712 5710 5709 5708 5707
5742 5742 5741 5741 5741 5741 5740 5740 5739 5739 5738 5739 5738 5738 5737 5737 5736 5736 5735 5735 5735 5734 5733 5732 5731 5730 5729 5728 5726 5724 5723 5722 5720 5719 5717 5716 5715 5713 5712 5710 5709 5707 5706
5742 5742 5741 5741 5741 5741 5740 5739 5739 5738 5738 5738 5737 5737 5737 5736 5736 5735 5734 5734 5733 5733 5732 5731 5730 5729 5728 5727 5726 5724 5723 5721 5720 5719 5717 5716 5714 5713 5711 5710 5708 5707 5705
5742 5742 5741 5741 5741 5741 5740 5739 5738 5737 5736 5736 5735 5736 5736 5735 5735 5734 5733 5732 5732 5731 5730 5730 5729 5728 5727 5726 5725 5724 5722 5721 5719 5718 5717 5715 5714 5712 5711 5709 5708 5706 5705
5743 5742 5742 5742 5741 5740 5739 5739 5737 5736 5735 5734 5734 5734 5734 5734 5734 5733 5732 5731 5730 5729 5729 5728 5728 5727 5726 5725 5724 5723 5722 5720 5719 5717 5716 5715 5714 5712 5711 5709 5707 5706 5704
5744 5743 5742 5742 5741 5740 5739 5738 5736 5736 5734 5733 5733 5732 5731 5732 5732 5731 5731 5730 5729 5728 5727 5726 5725 5725 5724 5724 5723 5722 5721 5720 5719 5717 5716 5715 5713 5712 5710 5709 5707 5706 5704
5744 5743 5742 5741 5741 5739 5739 5738 5736 5733 5732 5732 5729 5726 5727 5729 5729 5729 5729 5728 5727 5726 5725 5724 5723 5722 5722 5721 5720 5720 5719 5718 5718 5717 5716 5714 5713 5711 5710 5709 5707 5705 5703
5745 5744 5743 5741 5740 5739 5738 5737 5735 5732 5730 5730 5727 5722 5719 5720 5724 5726 5726 5725 5724 5723 5722 5722 5721 5720 5719 5718 5718 5718 5717 5717 5716 5715 5714 5713 5712 5711 5709 5708 5706 5705 5702
5746 5745 5743 5742 5740 5739 5737 5736 5735 5732 5729 5728 5728 5724 5717 5714 5716 5720 5721 5721 5720 5720 5719 5718 5717 5716 5716 5715 5715 5714 5714 5714 5713 5713 5711 5711 5709 5708 5707 5706 5704 5703 5701
5747 5745 5744 5743 5741 5739 5738 5737 5736 5734 5731 5727 5726 5726 5724 5721 5715 5713 5715 5716 5716 5716 5716 5715 5715 5714 5713 5712 5712 5711 5711 5710 5710 5709 5708 5707 5707 5705 5704 5703 5702 5701 5698
5747 5746 5745 5743 5741 5740 5738 5737 5736 5735 5732 5729 5726 5724 5722 5719 5718 5713 5710 5711 5712 5712 5712 5712 5711 5710 5710 5709 5709 5708 5707 5706 5706 5705 5704 5703 5703 5702 5701 5700 5699 5697 5695
5748 5747 5745 5743 5742 5740 5738 5737 5736 5734 5732 5730 5727 5725 5722 5719 5716 5713 5710 5708 5707 5707 5708 5708 5707 5706 5706 5705 5704 5704 5703 5702 5701 5700 5699 5699 5698 5697 5697 5696 5694 5692 5690
5747 5747 5746 5744 5742 5741 5739 5737 5735 5733 5731 5729 5727 5725 5723 5722 5720 5716 5711 5707 5704 5704 5704 5703 5703 5702 5701 5700 5699 5699 5698 5697 5696 5695 5694 5693 5692 5691 5690 5690 5688 5687 5685
5749 5748 5747 5745 5743 5741 5739 5737 5735 5733 5731 5729 5727 5725 5723 5721 5719 5717 5713 5707 5702 5700 5700 5699 5698 5697 5696 5695 5694 5693 5692 5691 5690 5689 5688 5687 5686 5685 5684 5683 5681 5680 5678
5752 5750 5747 5745 5743 5741 5739 5737 5734 5732 5730 5728 5726 5724 5722 5720 5718 5716 5713 5710 5703 5697 5695 5695 5693 5693 5691 5690 5689 5688 5686 5685 5685 5683 5682 5681 5679 5678 5677 5675 5674 5672 5671
5752 5749 5747 5745 5742 5740 5738 5736 5733 5731 5729 5726 5725 5722 5720 5718 5716 5714 5711 5708 5705 5700 5694 5692 5690 5688 5687 5685 5684 5682 5681 5680 5678 5677 5675 5674 5672 5671 5670 5668 5666 5665 5663
5751 5748 5746 5744 5741 5739 5737 5734 5731 5729 5726 5724 5722 5720 5718 5716 5713 5711 5708 5705 5702 5699 5692 5688 5685 5683 5681 5680 5678 5676 5675 5674 5672 5670 5669 5667 5665 5664 5662 5661 5659 5657 5655
5751 5748 5746 5743 5740 5737 5735 5732 5729 5726 5723 5721 5719 5718 5716 5714 5711 5708 5705 5702 5699 5696 5691 5684 5681 5679 5676 5674 5672 5670 5669 5668 5666 5664 5662 5660 5658 5656 5655 5653 5651 5649 5647
5750 5747 5744 5741 5738 5735 5733 5730 5727 5724 5721 5718 5716 5715 5713 5710 5707 5704 5702 5699 5696 5693 5689 5683 5678 5674 5671 5668 5666 5664 5662 5660 5659 5657 5654 5652 5651 5649 5647 5645 5642 5640 5638
5749 5745 5742 5739 5736 5733 5730 5728 5725 5721 5718 5716 5714 5712 5709 5707 5704 5701 5698 5695 5691 5687 5683 5679 5674 5670 5666 5663 5660 5658 5656 5654 5652 5650 5647 5645 5643 5641 5639 5637 5635 5632 5630
5746 5743 5740 5736 5733 5730 5728 5725 5722 5719 5715 5712 5710 5708 5706 5704 5701 5698 5695 5691 5688 5683 5678 5674 5669 5665 5661 5657 5655 5653 5650 5647 5645 5642 5640 5638 5635 5633 5631 5629 5626 5624 5621
5743 5740 5737 5734 5731 5728 5725 5722 5719 5715 5712 5709 5706 5704 5702 5700 5697 5695 5691 5688 5685 5680 5675 5670 5665 5661 5657 5654 5650 5647 5643 5640 5638 5635 5632 5630 5628 5626 5624 5621 5619 5616 5613
5740 5737 5734 5731 5728 5726 5722 5719 5715 5712 5709 5706 5703 5700 5698 5696 5693 5690 5687 5683 5679 5676 5673 5668 5663 5659 5655 5651 5646 5641 5637 5635 5633 5630 5625 5624 5621 5619 5617 5615 5612 5609 5606
5738 5734 5730 5728 5725 5723 5719 5715 5711 5708 5706 5703 5700 5697 5694 5691 5688 5685 5681 5677 5673 5670 5666 5663 5660 5656 5652 5647 5643 5638 5633 5629 5625 5622 5619 5617 5615 5613 5611 5608 5606 5603 5600
5735 5731 5728 5724 5721 5719 5716 5712 5708 5704 5701 5697 5694 5692 5689 5685 5682 5679 5675 5671 5667 5664 5661 5657 5654 5650 5646 5641 5636 5631 5626 5623 5620 5617 5612 5610 5609 5606 5604 5602 5599 5597 5594
5732 5728 5724 5721 5718 5716 5713 5708 5703 5700 5696 5692 5688 5685 5683 5679 5676 5672 5668 5664 5660 5656 5653 5651 5647 5643 5639 5635 5631 5627 5623 5618 5615 5612 5609 5604 5602 5599 5598 5596 5592 5590 5587